This demonstration page uses our WeatherBlox Daily Observations layout. Learn more.

Left ArrowRight Arrow

34.02893, -84.19858

Hourly Observations for August 19, 2022

Temp ( °F °C ) Dew Point ( °F °C ) Humidity (%) Winds ( mph kmh ) Pressure ( in mb ) Visibility ( mi km ) Precip ( " mm )
12:53 am 00:53 Mostly Cloudy 73 22.8 68 20 84 84 Calm 29.95 1014 10 16 0.00 0.00
1:53 am 01:53 Cloudy 72 22.2 69 20.6 91 91 Calm 29.96 1014 10 16 0.00 0.00
2:53 am 02:53 Cloudy 72 22.2 69 20.6 91 91 Calm 29.96 1014 10 16 0.00 0.00
3:53 am 03:53 Cloudy 72 22.2 69 20.6 91 91 Calm 29.96 1015 10 16 0.00 0.00
4:53 am 04:53 Partly Cloudy 72 22.2 69 20.6 91 91 Calm 29.96 1014 10 16 0.00 0.00
5:53 am 05:53 Mostly Cloudy 71 21.7 69 20.6 93 93 Calm 29.96 1015 10 16 0.00 0.00
6:15 am 06:15 Cloudy 71 21.7 69 20.6 93 93 Calm 29.98 1015 9 14 0.00 0.00
6:53 am 06:53 Cloudy 71 21.7 69 20.6 93 93 VRB 3 6 29.96 1015 7 11 0.00 0.00
7:53 am 07:53 Cloudy with Mist and Fog 71 21.7 69 20.6 93 93 Calm 29.98 1015 6 10 0.00 0.00
8:53 am 08:53 Cloudy with Mist and Fog 71 21.7 70 21.1 96 96 VRB 3 6 29.99 1016 6 10 0.00 0.00
9:40 am 09:40 Cloudy with Mist and Fog 72 22.2 70 21.1 93 93 Calm 30.02 1016 5 8 0.00 0.00
9:53 am 09:53 Cloudy with Mist and Fog 72 22.2 70 21.1 93 93 Calm 30.01 1016 6 10 0.00 0.00
10:53 am 10:53 Cloudy 73 22.8 70 21.1 90 90 Calm 30.02 1017 7 11 0.00 0.00
11:53 am 11:53 Cloudy with Mist and Fog 73 22.8 70 21.1 90 90 Calm 30.02 1017 5 8 0.00 0.00
12:53 pm 12:53 Cloudy 75 23.9 70 21.1 84 84 VRB 5 7 30.01 1016 10 16 0.01 0.13
1:53 pm 13:53 Cloudy 76 24.4 70 21.1 82 82 VRB 3 6 30.01 1016 10 16 0.00 0.00
2:33 pm 14:33 Mostly Cloudy with Light Rain 73 22.8 70 21.1 90 90 VRB 7 11 30.02 1017 1 2 0.17 4.32
2:37 pm 14:37 Mostly Cloudy with Heavy Rain 72 22.2 70 21.1 93 93 E 5 7 30.02 1016 1 1 0.30 7.62
2:46 pm 14:46 Mostly Cloudy with Heavy Rain 71 21.7 70 21.1 96 96 VRB 3 6 30.02 1017 1 2 0.39 9.91
2:53 pm 14:53 Mostly Cloudy with Light Rain 72 22.2 71 21.7 97 97 VRB 3 6 30.01 1016 3 4 0.40 10.16
3:00 pm 15:00 Cloudy with Light Rain 72 22.2 71 21.7 97 97 VRB 3 6 30.01 1016 7 11 0.01 0.13
3:53 pm 15:53 Cloudy 76 24.4 72 22.2 88 88 undefined N/A 30.00 1016 10 16 0.01 0.13
5:00 pm 17:00 Mostly Cloudy 75 23.9 70 21.1 84 84 Calm 29.99 1016 10 16 0.00 0.00
5:31 pm 17:31 Mostly Cloudy 75 23.9 71 21.7 88 88 Calm 29.98 1015 10 16 0.00 0.00
5:53 pm 17:53 Mostly Cloudy 76 24.4 71 21.7 85 85 VRB 5 7 29.98 1015 10 16 0.00 0.00
6:00 pm 18:00 Mostly Cloudy 76 24.4 70 21.1 82 82 VRB 5 7 29.99 1016 10 16 0.00 0.00
6:14 pm 18:14 Mostly Cloudy 75 23.9 70 21.1 84 84 VRB 3 6 29.99 1016 10 16 0.00 0.00
6:30 pm 18:30 Cloudy 75 23.9 70 21.1 84 84 VRB 5 7 30.00 1016 10 16 0.00 0.00
6:53 pm 18:53 Cloudy 74 23.3 70 21.1 87 87 SE 6 9 29.99 1016 10 16 0.00 0.00
7:53 pm 19:53 Cloudy 74 23.3 71 21.7 91 91 Calm 30.01 1016 10 16 0.00 0.00
8:53 pm 20:53 Mostly Cloudy 73 22.8 71 21.7 94 94 Calm 30.03 1017 10 16 0.00 0.00
9:44 pm 21:44 Mostly Cloudy 73 22.8 71 21.7 94 94 Calm 30.04 1017 10 16 0.00 0.00
9:53 pm 21:53 Mostly Cloudy with Light Rain 73 22.8 70 21.1 90 90 Calm 30.04 1017 10 16 0.01 0.13
10:53 pm 22:53 Cloudy 73 22.8 71 21.7 94 94 VRB 5 7 30.04 1017 10 16 0.01 0.13
11:53 pm 23:53 Mostly Cloudy 72 22.2 71 21.7 97 97 SSE 3 6 30.06 1018 10 16 0.00 0.00

Powered by AerisWeather